SCP
0 0 0 0 0 0 0 0 0 0 0 0 0 0 0 0 0 0 0 0 0 0 0 0 0 0 0 0 0 0 0 0 0 0 0 0 0 0 0 0 0 0 0
0 0 0 0 0 0 0 0 0 0 0 0 0 0 0 0 0 0 0 0 0 0 0 0 0 0 0 0 0 0 0 0 0 0 0 0 0 0 0 0 0 0 0
0 0 0 0 0 0 0 0 0 0 0 0 0 0 0 0 0 0 0 0 0 0 0 0 0 0 0 0 0 0 0 0 0 0 -0 0 0 0 0 0 0 0 0
0 0 0 0 0 0 0 0 0 0 0 0 0 0 0 0 0 0 0 0 0 0 0 0 0 0 0 0 0 0 0 0 0 -0 -0 -0 0 0 0 0 0 0 0
0 0 0 0 0 0 0 0 0 0 0 0 0 0 0 0 0 0 0 0 0 0 0 0 0 0 0 0 0 0 0 -0 -0 -0 -0 0 0 0 0 0 0 0 0
0 0 0 0 0 0 0 0 0 0 0 0 0 0 0 0 0 0 0 0 0 0 0 0 0 0 0 0 0 0 -0 -0 -0 -0 0 0 0 0 0 0 0 0 0
0 0 0 0 0 0 0 0 0 0 0 0 0 0 0 0 0 0 0 0 0 0 0 0 0 0 0 0 0 -0 -0 -0 0 0 0 0 0 0 0 0 0 0 0
0 0 0 0 0 0 0 0 0 0 0 0 0 0 0 0 0 0 0 0 0 0 0 0 0 0 0 0 -0 -0 -0 0 0 0 0 0 0 0 0 0 0 0 0
0 0 0 0 0 0 0 0 0 0 0 0 0 0 0 0 0 0 0 0 0 0 0 0 0 0 0 -0 -0 -0 0 0 0 0 0 0 0 0 0 0 0 0 0
-0 0 0 0 0 0 0 0 0 0 0 0 0 0 0 0 0 0 0 0 0 0 0 0 0 0 0 -0 -0 -0 0 0 0 0 0 0 0 0 0 0 0 0 0
-0 -0 0 0 0 0 0 0 0 0 0 0 0 0 0 0 0 0 0 0 0 0 0 0 0 0 0 -0 0 0 0 0 0 0 0 0 0 0 0 0 0 0 0
-0 -0 0 0 0 0 0 0 0 0 0 0 0 0 0 0 0 0 0 0 0 0 0 0 0 0 -0 -0 0 0 0 0 0 0 0 0 0 0 0 0 0 0 0
-0 -0 -0 0 0 0 0 0 0 0 0 0 0 0 0 0 0 0 0 0 0 0 0 0 0 -0 -0 -0 -0 0 0 0 0 0 0 0 0 0 0 0 0 0 0
0 0 0 0 0 0 0 0 0 0 0 0 0 0 0 0 0 0 0 0 0 0 0 0 0 -0 -0 -0 0 0 0 0 0 0 0 0 0 0 0 0 0 0 0
0 0 0 0 0 0 0 0 0 0 0 0 0 0 0 0 0 0 0 0 0 0 0 0 0 0 0 0 0 0 0 0 0 0 0 0 0 0 0 0 0 0 0
0 0 0 0 0 0 0 0 0 0 0 0 0 0 0 0 0 0 -0 -0 0 0 0 0 0 0 0 0 0 0 0 0 0 0 0 0 0 0 0 0 0 0 0
0 0 0 0 0 0 0 0 0 0 0 0 0 0 0 0 0 0 0 0 0 0 0 0 0 0 0 0 0 0 0 0 0 0 0 0 0 0 0 0 0 0 0
0 0 0 0 0 0 0 0 0 0 0 0 0 0 0 0 0 0 0 0 0 0 0 0 0 0 0 0 0 0 0 0 0 0 0 0 0 0 0 0 0 0 0
0 0 0 0 0 0 0 0 0 0 0 0 0 0 0 0 0 0 0 0 0 0 0 0 0 -0 0 0 0 0 0 0 0 0 0 0 0 0 0 0 0 0 0
0 0 0 0 0 0 0 0 0 0 0 0 0 0 0 0 0 0 0 0 0 0 0 0 0 -0 0 0 0 0 0 0 0 0 0 0 0 0 0 0 0 0 0
0 0 0 0 0 0 0 0 0 0 0 0 0 0 0 0 0 0 0 0 0 0 0 0 0 0 -0 -0 0 0 0 0 0 0 0 0 0 0 0 0 0 0 0
0 0 0 0 0 0 0 0 0 0 0 0 0 0 0 0 0 0 0 0 0 0 0 0 0 0 0 -0 -0 -0 0 0 0 0 0 0 0 0 0 0 0 0 0
0 0 0 0 0 0 0 0 0 0 0 0 0 0 0 -0 0 0 0 0 0 0 0 0 0 0 0 0 0 -0 -0 -0 -0 0 0 0 0 0 0 0 0 0 0
0 0 0 0 0 0 0 0 0 0 0 0 0 0 0 0 0 0 0 0 0 0 0 0 0 0 0 0 0 -0 -0 -0 -0 -0 0 0 0 0 0 0 0 0 0
0 0 0 0 0 0 0 0 0 0 0 0 0 0 0 0 0 0 0 0 0 0 0 0 0 0 0 0 0 0 -0 -0 -0 -0 -0 0 0 0 0 0 0 0 0
0 0 0 0 0 0 0 0 0 0 0 0 0 0 0 0 0 0 0 0 0 0 0 0 0 0 0 0 0 0 0 -0 -0 -0 -0 -0 0 0 0 0 0 0 0
Wind_Speed
4 3 3 2 2 1 2 3 4 4 4 4 4 5 4 2 1 2 3 5 6 7 8 8 9 8 6 6 6 6 6 6 9 7 5 5 6 7 8 5 4 2 3
3 2 2 1 2 2 3 4 4 5 5 4 4 4 3 2 2 2 4 6 7 9 10 9 11 8 8 7 6 7 6 7 8 10 6 5 6 7 7 5 1 2 2
3 2 2 3 3 4 4 4 4 4 4 4 4 4 3 4 4 4 4 6 8 9 9 10 11 10 10 7 7 6 6 6 6 8 8 6 5 5 5 1 3 2 3
2 1 2 4 4 4 3 4 4 4 4 4 4 5 5 5 5 4 5 6 8 9 9 9 10 10 10 8 6 6 5 6 7 8 9 7 6 5 3 2 3 3 3
2 3 4 5 5 4 4 5 5 4 5 5 5 6 6 5 5 5 5 7 8 9 10 9 9 13 13 9 8 7 7 7 8 9 9 8 7 5 4 3 3 3 1
4 5 5 4 4 5 5 6 5 5 5 6 6 7 7 5 4 6 8 7 8 9 10 10 11 10 11 14 17 17 16 14 12 11 9 9 8 5 3 4 5 3 1
3 4 4 4 5 6 6 6 6 5 5 7 7 6 6 4 5 9 14 9 8 9 9 8 10 9 9 8 15 19 17 21 22 16 12 11 7 5 5 6 4 3 2
3 4 5 5 6 7 7 7 6 5 5 5 6 6 4 4 7 10 16 9 8 10 10 9 9 8 9 12 13 13 13 14 16 12 9 8 6 5 6 6 9 8 5
5 6 7 7 7 8 8 7 5 4 3 4 4 5 3 3 7 12 15 8 8 10 10 9 8 8 13 16 12 13 14 13 13 9 2 5 9 12 13 10 8 6 4
6 7 7 7 7 8 8 6 3 1 4 5 6 4 3 3 8 13 16 6 7 9 9 9 12 11 15 14 10 11 12 11 9 4 7 9 10 12 11 7 6 6 4
6 6 6 6 6 5 4 4 5 6 6 6 5 4 4 5 9 14 18 9 8 9 8 8 8 13 15 13 11 9 12 11 5 5 8 8 8 7 8 7 5 3 4
5 6 7 7 6 7 8 8 7 6 5 5 5 6 5 6 8 13 18 17 15 9 9 8 9 14 14 11 9 13 14 7 2 5 7 7 7 7 7 7 8 7 6
6 6 6 7 8 7 7 6 5 4 4 4 4 5 7 6 8 13 15 18 19 11 9 14 15 14 10 7 11 15 9 3 3 6 7 7 7 8 8 8 9 10 11
6 5 5 7 7 6 5 4 4 4 4 5 6 6 7 7 8 9 9 10 14 11 9 11 13 10 7 7 9 8 6 5 4 7 8 8 7 7 7 7 8 8 9
5 5 6 6 5 4 3 3 3 2 3 5 6 6 7 8 10 15 11 9 9 10 9 5 5 5 5 5 6 6 6 5 6 7 8 8 7 8 7 7 7 7 7
5 6 5 5 4 3 3 4 5 6 8 8 9 9 6 9 14 16 18 19 17 16 8 6 6 6 5 5 6 6 6 6 6 7 7 7 8 8 8 8 7 6 6
5 6 5 5 4 4 4 4 4 6 9 7 11 12 12 14 15 17 19 18 14 13 7 7 7 7 6 5 5 5 6 6 6 6 7 7 8 8 8 8 6 6 6
7 9 7 5 4 4 4 4 3 4 5 6 8 12 14 15 14 15 16 12 10 10 8 8 7 7 7 6 6 6 6 7 7 7 7 7 8 8 8 7 5 5 5
7 6 5 4 4 4 4 4 4 5 6 6 7 9 12 13 12 13 12 8 8 9 9 8 8 7 6 6 5 6 6 7 8 7 7 8 7 7 7 6 5 7 6
8 11 7 5 4 4 4 4 6 6 7 7 7 7 8 8 7 8 8 7 7 8 8 8 7 7 6 5 5 5 6 6 7 7 6 6 6 6 7 7 5 5 5
7 7 9 6 4 4 4 5 6 7 7 7 7 8 11 7 7 8 8 8 7 7 7 7 7 7 5 4 4 5 6 5 4 5 5 5 5 5 4 4 4 5 7
6 5 4 4 3 4 4 4 5 7 8 8 7 8 11 7 7 7 8 8 8 7 7 7 6 6 5 4 4 4 4 4 4 4 5 5 4 4 3 3 5 7 8
6 6 4 4 3 4 4 4 4 5 6 7 8 7 8 7 8 8 8 9 9 9 8 8 8 9 8 6 5 4 4 3 3 4 4 5 5 4 4 5 6 8 8
6 6 5 4 3 3 3 3 4 5 6 7 7 8 8 8 8 9 9 9 9 9 10 9 9 12 14 10 6 5 4 3 3 4 5 5 5 4 4 4 5 6 7
6 6 5 4 3 2 3 3 4 5 6 6 7 7 8 9 9 9 10 9 10 11 13 12 10 11 14 15 12 8 5 4 4 3 3 3 4 4 4 3 3 5 6
6 6 5 4 3 3 3 3 4 5 6 6 7 7 8 8 9 9 9 10 10 10 11 10 14 15 16 13 13 11 8 6 3 2 2 2 2 2 3 2 2 4 6
Wind_Direction
96 96 84 65 47 14 333 316 314 312 313 309 304 306 308 307 321 350 323 317 313 306 306 304 294 285 280 277 276 271 260 259 278 285 274 278 279 283 291 287 271 196 163
102 96 64 21 351 339 322 315 318 319 317 305 297 297 278 217 217 271 300 305 301 306 308 305 298 295 286 282 277 266 262 260 273 288 292 284 276 278 281 283 222 148 108
87 74 6 341 338 330 321 311 306 308 317 319 306 287 249 231 238 255 280 291 297 302 303 301 298 296 294 286 277 271 270 276 273 283 286 278 272 269 269 216 95 59 49
66 17 314 301 301 303 305 292 283 290 305 312 303 285 265 253 250 265 282 289 292 299 301 299 296 294 291 287 287 280 281 285 281 279 279 277 271 261 234 183 126 69 34
342 313 290 284 292 304 300 279 275 292 298 296 294 288 281 270 246 254 286 290 290 298 304 306 303 308 316 321 318 307 297 287 282 276 273 270 263 248 224 166 130 130 63
314 297 294 300 300 296 278 268 283 300 296 294 290 284 284 287 267 309 318 300 300 302 304 308 311 309 322 329 321 311 299 291 288 278 268 258 253 232 193 153 141 157 145
282 282 296 303 295 284 274 272 286 290 284 292 294 300 304 319 358 348 336 327 310 303 300 303 314 316 324 318 316 309 299 292 288 277 259 247 235 205 168 150 127 108 97
255 276 284 283 280 280 282 277 278 275 279 296 318 339 1 26 13 348 340 328 305 300 299 297 301 307 318 324 314 305 300 299 294 284 249 228 206 170 147 127 124 107 84
262 268 268 267 268 271 273 273 266 266 307 356 11 13 15 348 349 340 337 317 310 308 305 304 310 312 320 325 318 310 308 307 309 310 221 157 149 138 132 126 131 125 107
272 271 274 277 277 273 275 286 286 30 46 44 26 6 355 328 328 334 338 321 316 315 312 310 317 318 324 324 316 312 311 312 317 2 80 96 110 116 114 121 134 133 119
289 301 312 319 319 323 350 16 49 65 53 32 7 348 342 330 330 335 337 334 322 316 314 313 311 317 322 317 317 316 313 310 320 72 86 88 89 90 87 83 75 90 100
328 342 346 357 23 53 64 61 59 56 41 12 355 345 329 321 327 330 332 331 328 316 311 311 312 319 324 323 328 329 327 330 25 84 90 90 92 92 89 86 84 78 79
1 1 10 40 50 57 66 62 53 42 30 5 352 337 327 326 330 334 333 331 331 329 318 322 328 330 335 338 339 341 345 10 66 89 92 94 95 97 96 93 88 88 88
25 21 40 60 59 52 57 61 58 36 18 359 350 339 332 338 348 345 336 329 329 331 328 325 327 334 354 351 347 353 0 27 69 90 94 96 96 97 97 98 100 101 103
39 44 51 67 78 64 52 45 49 17 25 21 360 341 339 350 345 336 333 332 334 334 328 327 341 348 4 8 359 2 9 27 68 91 101 101 97 96 90 85 96 101 104
60 52 58 72 75 61 34 4 348 347 4 36 18 6 347 340 334 337 341 341 341 343 348 348 354 2 14 20 9 7 17 34 67 93 98 97 97 97 95 91 90 92 98
81 74 71 64 57 49 38 29 6 353 6 22 5 2 356 347 345 345 346 342 347 355 1 358 2 6 17 28 20 17 25 38 65 85 93 97 99 101 102 105 102 94 93
80 84 82 65 58 48 32 17 10 4 359 358 356 357 353 348 345 346 346 349 360 4 1 358 0 8 21 36 32 27 31 42 58 72 87 97 103 107 109 114 112 102 101
91 94 81 70 57 43 24 13 14 16 13 4 359 359 352 346 343 348 352 359 356 356 354 354 356 5 19 32 39 34 37 47 55 63 75 88 97 103 112 121 115 108 103
99 103 91 75 58 40 22 19 24 22 18 15 12 5 349 347 354 351 353 351 352 351 349 350 352 1 10 18 33 47 53 54 55 60 65 74 80 85 96 104 109 110 107
107 102 93 80 64 48 32 24 25 23 20 17 10 359 356 353 354 351 353 354 352 349 348 347 349 355 7 16 31 51 59 61 58 58 65 76 83 82 79 86 106 114 116
112 109 100 90 71 54 42 27 25 27 22 18 8 359 358 3 0 358 357 356 354 353 352 353 358 0 7 18 28 51 63 67 62 64 73 84 91 91 89 88 101 116 119
112 116 107 93 77 65 49 29 22 19 19 18 11 7 6 8 6 4 3 1 1 3 8 11 13 13 12 18 23 32 52 63 69 75 73 75 79 73 75 84 99 115 122
99 109 113 106 87 64 46 28 16 15 19 21 19 14 10 10 10 9 8 6 7 9 12 14 14 13 16 16 15 18 21 49 73 71 76 82 78 71 67 71 87 115 123
88 88 92 99 99 81 57 41 27 18 16 19 21 20 16 14 14 13 10 10 11 13 13 13 12 10 11 15 17 13 19 64 91 88 78 76 82 84 82 71 82 112 123
85 82 80 78 77 69 55 40 29 24 20 17 17 18 19 18 16 14 12 12 12 13 12 10 10 16 14 12 9 11 24 51 91 121 95 74 66 79 107 126 140 128 132